Regional Weather Roundup
Issued by NWS

Home | Current Version | Previous Version | Graphics & Text | Print | Product List | Glossary On
Versions: 1 2 3 4 5 6 7 8 9 10 11 12 13 14 15 16 17 18 19 20 21 22 23 24 25 26 27 28 29 30 31 32 33 34 35 36 37 38 39 40 41 42 43 44 45 46 47 48 49 50
000
ASUS43 KLMK 220202
RWRKY
KENTUCKY REGIONAL WEATHER ROUNDUP
NATIONAL WEATHER SERVICE LOUISVILLE KY
1000 PM EDT TUE OCT 21 2014

NOTE "FAIR" INDICATES FEW OR NO CLOUDS BELOW 12,000 FEET
WITH NO SIGNIFICANT WEATHER AND/OR OBSTRUCTIONS TO VISIBILITY.

KYZ001>023-026-027-061>063-070>075-220300-
WESTERN AND SOUTH CENTRAL KENTUCKY

CITY           SKY/WX    TMP DP  RH WIND       PRES   REMARKS
PADUCAH        CLEAR     55  46  71 NE6       30.14R
HENDERSON      CLEAR    N/A N/A N/A NE5       30.16R
OWENSBORO      CLEAR     54  42  63 NE6       30.16R HAZE
HOPKINSVILLE   CLEAR     51  45  78 N6        30.13R
BOWLING GREEN  PTCLDY    54  42  64 NE5       30.14R
GLASGOW        NOT AVBL
$$

KYZ024-025-028>034-038-045-046-053-220300-
NORTH CENTRAL KENTUCKY

CITY           SKY/WX    TMP DP  RH WIND       PRES   REMARKS
LOUISVILLE/SDF CLOUDY    56  42  59 N8        30.14R
LOUISVILLE/LOU CLOUDY    54  43  66 CALM      30.15R
FORT KNOX      CLOUDY    52  43  70 N3        30.13R
$$

KYZ035>037-039>044-047>052-055>060-089>105-220300-
NORTHEAST KENTUCKY

CITY           SKY/WX    TMP DP  RH WIND       PRES   REMARKS
LEXINGTON      CLOUDY    53  42  66 N6        30.14R
COVINGTON      PTCLDY    48  40  73 N7        30.15R
FRANKFORT      CLOUDY    52  40  63 N5        30.14R
$$

KYZ054-064>069-076>088-106>120-220300-
SOUTHEAST KENTUCKY

CITY           SKY/WX    TMP DP  RH WIND       PRES   REMARKS
JACKSON        CLOUDY    49  40  71 CALM      30.11R
LONDON         CLOUDY    50  39  66 CALM      30.12R
SOMERSET       CLOUDY    50  39  66 N3        30.14R
MIDDLESBORO    NOT AVBL
MONTICELLO     CLEAR     51  42  71 NE3       30.14R
$$




USA.gov is the U.S. government's official web portal to all federal, state and local government web resources and services.